Location: Diebersbach
(48.5163°N, 8.0558°E)
Time: 03:16:07
(UTC+00:00)

USA 229 - Pass Details

Date: 24 October 2021
Orbit: 946 x 1266 km, 63.4° (Epoch: 25 November)

Event Time Altitude Azimuth Distance (km) Brightness Sun altitude
Rises 17:25:18 0° 190° (S) 3,624 6.7 -11.2°
Reaches altitude 10° 17:27:57 10° 182° (S) 2,704 5.9 -11.6°
Maximum altitude 17:33:43 38° 117° (ESE) 1,487 4.1 -12.6°
Enters shadow 17:39:31 11° 53° (NE) 2,779 5.4 -13.5°
